Hourly Data Report for October 22, 2020

SHEARWATER RCS
NOVA SCOTIA
Current Station Operator: ECCC - MSC

44°37'47.000" N
63°30'48.000" W
24.00 m
8205092
71264
AAW

Download Data

Hourly Data (October 2020)
Hourly Data Report for October 22, 2020
TIME
LST
Temp Definition
°C
Dew Point Definition
°C
Rel Hum Definition
%
Precip. Amount Definition
mm

Wind Dir Definition
10's deg

Wind Spd Definition
km/h
Visibility Definition
km
Stn Press Definition
kPa
Hmdx Definition


Wind Chill Definition


Weather Definition


00:00 15.8 15.5 98 0.2 21 15   101.96     LegendNANA
01:00 15.6 15.3 98 0.0 22 14   101.95     LegendNANA
02:00 15.5 15.3 98 0.0 23 10   101.88     LegendNANA
03:00 15.4 15.2 98 0.0 22 13   101.86     LegendNANA
04:00 15.7 15.4 98 0.0 23 12   101.81     LegendNANA
05:00 15.2 14.9 98 0.0 21 12   101.77     LegendNANA
06:00 15.2 14.9 98 0.0 23 10   101.78     LegendNANA
07:00 15.2 14.8 97 0.0 25 8   101.82     LegendNANA
08:00 15.0 14.5 97 0.0 31 5   101.91     LegendNANA
09:00 16.0 15.5 97 0.0 31 8   101.96     LegendNANA
10:00 17.0 14.5 85 0.0 30 9   101.92     LegendNANA
11:00 18.3 14.6 79 0.0 30 12   101.92     LegendNANA
12:00 18.8 13.5 71 0.0 29 11   101.91     LegendNANA
13:00 19.2 12.3 64 0.0 30 12   101.89     LegendNANA
14:00 19.0 9.8 55 0.0 29 12   101.90     LegendNANA
15:00 19.0 9.3 53 0.0 30 9   101.90     LegendNANA
16:00 18.6 8.3 51 0.0 32 10   101.98     LegendNANA
17:00 16.9 7.2 53 0.0 34 9   102.05     LegendNANA
18:00 14.8 6.9 59 0.0 33 9   102.10     LegendNANA
19:00 13.3 6.8 65 0.0 33 8   102.16     LegendNANA
20:00 12.2 6.9 70 0.0 32 8   102.14     LegendNANA
21:00 11.5 6.8 73 0.0 34 6   102.19     LegendNANA
22:00 11.1 7.9 81 0.0 35 9   102.26     LegendNANA
23:00 10.6 7.8 83 0.0 2 5   102.29     LegendNANA

Notes on Data Quality.

Legend

  • E = Estimated
  • M = Missing
  • NA = Not Available*
  • [empty] = Indicates an unobserved value
Date modified: